Regional Weather Roundup
Issued by NWS Grand Forks, ND

Home | Current Version | Previous Version | Graphics & Text | Print | Product List | Glossary On
Versions: 1 2 3 4 5 6 7 8 9 10 11 12 13 14 15 16 17 18 19 20 21 22 23 24 25 26 27 28 29 30 31 32 33 34 35 36 37 38 39 40 41 42 43 44 45 46 47 48 49 50
000
ASUS43 KFGF 180931
RWRFGF
PRAIRIE TO PINES  WEATHER ROUNDUP
NATIONAL WEATHER SERVICE EASTERN NORTH DAKOTA/GRAND FORKS ND
300 AM CST WED JAN 18 2017

 **SATELLITE DATA USED TO AUGMENT SKY COVER AT AUTOMATED STATIONS**
 *****  WEATHER ACROSS EASTERN NORTH DAKOTA  *****

CITY           SKY/WX    TMP DP  RH WIND       PRES   REMARKS
GRAND FORKS    FAIR      27  18  69 SW13      29.69R WCI  16
GRAND FRKS AFB FAIR      26  19  75 SW8       29.68R WCI  17
DEVILS LAKE    FAIR      26  22  84 SW7       29.66R WCI  18
FARGO          FAIR      23  18  81 S12       29.75F WCI  12
WAHPETON ARPT  FAIR      21  18  86 S7        29.79F WCI  13
$$

 ***** WEATHER ACROSS CENTRAL AND WESTERN NORTH DAKOTA  *****

CITY           SKY/WX    TMP DP  RH WIND       PRES   REMARKS
BISMARCK       FAIR      20  15  81 SE3       29.75R
MINOT          FAIR      37  27  67 SW16      29.65R
JAMESTOWN      FAIR      28  20  71 SW12      29.71R WCI  18
MINOT AFB      FAIR      33  26  75 W13       29.63S WCI  24
GARRISON         N/A     30  22  72 SW8       29.69R WCI  22
WILLISTON      FAIR      31  23  72 SW15      29.69F WCI  20
DICKINSON      FAIR      32  22  66 SW20      29.72S WCI  20
HETTINGER      FAIR      29  19  66 W5        29.79F WCI  24
$$

 *****  OTHER AIRPORT OBSERVATIONS IN OUR AREA  *****

CITY           SKY/WX    TMP DP  RH WIND       PRES   REMARKS
WALHALLA       NOT AVBL
GRAFTON AIRPOR FAIR      25  21  86 SW14      29.67S WCI  13
VALLEY CITY AR FAIR      25  19  80 SW14      29.73S WCI  13
CANDO          NOT AVBL
CAVALIER APRT    N/A     30  23  74 SW9       29.62S WCI  22
GWINNER        FAIR      27  21  80 SW20      29.76F WCI  13
SHEYENNE NWR     N/A     23  17  76 SW8       29.95  WCI  14
ROLLA            N/A    N/A N/A N/A MISG        N/A
 ***** THE ABOVE OBSERVATIONS ARE NON NWS ARE NOT QUALITY
       CONTROLLED AND MAY MIS-REPORT RAIN FOR SNOW...
$$

  *****  WEATHER ACROSS NORTHERN MINNESOTA  *****

CITY           SKY/WX    TMP DP  RH WIND       PRES   REMARKS
FLAG ISLAND    FAIR      19  16  86 S12       29.59F WCI   7
WARROAD        FAIR      23  18  80 SW12G18   29.62F WCI  12
ROSEAU         FAIR      23  18  80 S15       29.62F WCI  10
HALLOCK        FAIR      19  16  86 S12       29.63S WCI   7
THF RVR FALLS  FAIR      22  17  81 SW21      29.68S WCI   6
BAUDETTE       FAIR      25  17  72 SW9       29.64F WCI  15
WASKISH        FAIR      28  19  69 SW3       29.67F
CROOKSTON      FAIR      21  18  86 S13       29.72R WCI   9
STEPHEN NDAWN    N/A     19  16  86 S15         N/A  WCI   5
GREENBUSH NDAW   N/A     21  18  86 S14         N/A  WCI   8
$$
  *****  WEATHER ACROSS CENTRAL AND WEST MINNESOTA  *****

CITY           SKY/WX    TMP DP  RH WIND       PRES   REMARKS
FOSSTON        FAIR      21  18  86 S16       29.73S WCI   7
BEMIDJI        FAIR      27  19  71 SW9       29.70F WCI  18
PARK RAPIDS    FAIR      20  14  77 S7        29.76S WCI  11
ELBOW LAKE     FAIR      20  18  93 S12       29.81F FOG     WCI   8
WADENA         FAIR      25  19  80 S9        29.78F WCI  15
DETROIT LAKES  FAIR      28  23  80 S13       29.76F WCI  18
MOORHEAD       FAIR      19  16  86 S13       29.77S WCI   7
FERGUS FALLS   FAIR      21  19  93 S10       29.85S WCI  10
MORRIS MN      FAIR      18  16  93 SE9       29.83F WCI   6
STAPLES        FAIR      19  18  93 S7        29.80S WCI  10
$$
  *****  WEATHER ELSEWHERE ACROSS MINNESOTA  *****

CITY           SKY/WX    TMP DP  RH WIND       PRES   REMARKS
DULUTH         FAIR      25  23  92 SW14      29.79F WCI  13
INTRNTL FALLS  FAIR      26  18  71 SW13      29.65F WCI  15
ELY            FAIR      25  18  74 SW14G20   29.70F WCI  13
CLOQUET        FAIR      25  21  86 S9        29.82S WCI  15
WHEATON        FAIR      32  28  86 S10       29.82F WCI  24
BRAINERD       FAIR      22  18  85 S14       29.83F WCI   9
HIBBING        FAIR      19  18  95 S5        29.75F WCI  12
ALEXANDRIA     FAIR      24  21  88 S14       29.83F WCI  12
SAINT CLOUD    FAIR      22  21  96 S8        29.89F WCI  12
MINNEAPOLIS    FAIR      28  24  85 S7        29.96F WCI  21
$$

  *****  WEATHER ACROSS SOUTH DAKOTA  *****

CITY           SKY/WX    TMP DP  RH WIND       PRES   REMARKS
SIOUX FALLS    FAIR      31  28  89 SW5       29.94R
BROOKINGS      FAIR      23  21  92 S13       29.89R WCI  11
WATERTOWN      FAIR      19  17  92 S8        29.87R WCI   9
HURON          FAIR      21  21 100 SE3       29.90R
SISSETON         N/A     36  23  59 W18G26    29.77F
ABERDEEN       FAIR      16  11  80 S10       29.85S WCI   4
MITCHELL       FAIR      21  19  92 S8        29.92R WCI  11
PIERRE         FAIR      18  12  77 CALM      29.87R
MOBRIDGE       FAIR      17  10  74 SE10      29.79S WCI   5
RAPID CITY     FAIR      31  19  61 NW7       29.85S WCI  24
$$

  *****  SOME WEATHER IN NEARBY STATES *****

CITY           SKY/WX    TMP DP  RH WIND       PRES   REMARKS
GLASGOW MT     FAIR      27  22  81 SE12      29.65F WCI  17
GREAT FALLS MT FAIR      41  25  53 SW28      29.65F
CHEYENNE WY    FAIR      26  12  55 W12       29.97S WCI  16
SCOTTSBLUFF NE FAIR      24  15  68 N8        29.96S WCI  15
OMAHA NE       FAIR      27  22  81 E6        30.08F WCI  20
DES MOINES IA  CLOUDY    33  30  88 W8        30.12S
DAVENPORT IA   CLOUDY    33  32  96 W10       30.13R FOG     WCI  25
CHICAGO IL     CLOUDY    34  33  96 W10       30.05R FOG
EAU CLAIRE WI  CLOUDY    31  30  96 SW9       29.97S WCI  23
LA CROSSE WI   CLOUDY    35  31  85 SW9       30.04S
$$

  *****  SOME NATIONAL WEATHER *****

CITY           SKY/WX    TMP DP  RH WIND       PRES   REMARKS
LA GUARDIA NY  LGT RAIN  41  39  93 NE13      29.90S
RALEIGH NC     CLOUDY    62  56  80 SW9       29.94F
ATLANTA GA     CLOUDY    63  59  87 W8        30.10F
NEW ORLEANS LA FOG       67  67 100 SE7       30.12S VSB 1/2
OKLAHOMA CITY  MOCLDY    39  35  86 SW3       30.15S
ALBUQUERQUE NM MOCLDY    37  33  85 SE3       30.14S
SALT LAKE CITY FAIR      21  18  88 N6        30.21F WCI  13
LOS ANGELES CA MOCLDY    54  52  93 N3        30.15F
BOISE ID       FAIR       9   4  80 CALM      30.12F HAZE
SEATTLE WA     LGT RAIN  47  46  97 SE10      29.50F
$$

*** WEATHER ACROSS MANITOBA...SASKATCHEWAN AND ONTARIO ***
                ***ONTARIO***

CITY           SKY/WX    TMP DP  RH WIND       PRES   REMARKS
GERALDTON      CLOUDY    32  27  80 SW15      29.64F WCI  22
THUNDER BAY    PTCLDY    10  10 100 VRB2      29.74F FOG
SIOUX LOOKOUT  MOCLDY    27  19  74 SW9       29.59  WCI  17
TORONTO        DRIZZLE   34  34 100 W5        29.84R FOG
BIG TROUT LK   CLOUDY    28  25  86 W9        29.37R WCI  20
PICKLE LAKE    NOT AVBL
DRYDEN         CLEAR     25  19  80 SW7       29.60R WCI  17
KENORA         PTCLDY    19  16  86 S10       29.59S WCI   8
$$
                *** MANITOBA***

CITY           SKY/WX    TMP DP  RH WIND       PRES   REMARKS
BRANDON        CLEAR     21  19  93 W10       29.59R WCI  10
DAUPHIN        CLEAR     32  28  86 W9        29.53S WCI  24
ISLAND LAKE    CLOUDY    27  21  80 W8        29.45  WCI  18
PILOT MOUND      N/A     21  18  86 SW5         N/A  WCI  15
THE PAS        MOCLDY    32  27  80 S3        29.46R
THOMPSON       CLOUDY    34  30  86 NW3       29.41R
WINNIPEG       PTCLDY    21  18  86 S10       29.58R WCI  10
LYNN LAKE      PTCLDY    25  25 100 SW6       29.40R WCI  18
CHURCHILL      LGT SNOW  10   9  92 N24G31    29.36R DRFTSNOWWCI -10
GILLAM         CLOUDY    36  30  80 NW12G18   29.37R
$$
                ***SASKATCHEWAN***

CITY           SKY/WX    TMP DP  RH WIND       PRES   REMARKS
ESTEVAN        PTCLDY    28  25  86 SW15      29.62S WCI  17
KINDERSLEY     PTCLDY    34  30  86 S12       29.40F
LLOYDMINSTER   PTCLDY    32  28  86 S16       29.27F WCI  21
PRINCE ALBERT  MOCLDY    25  23  93 S5        29.40S WCI  19
REGINA         PTCLDY    30  27  86 S6        29.54F WCI  24
YORKTON        CLEAR     27  25  93 S12       29.53R WCI  16
N. BATTLEFORD  CLEAR     36  30  80 S5        29.37F
LA RONGE       PTCLDY    23  21  93 CALM      29.37S
SASKATOON      MOCLDY    30  27  86 S8        29.42F WCI  23
SWIFT CURRENT  PTCLDY    43  32  65 SW21G26   29.46F
$$
NOTE: THESE ARE AUTOMATED STATIONS WITH LIMITED QUALITY CONTROL
      "FAIR" INDICATES FEW OR NO CLOUDS BELOW 12,000 FEET WITH NO
      SIGNIFICANT WEATHER AND/OR OBSTRUCTIONS TO VISIBILITY.
      SKY/WX - SKY CONDITION AND SIGNIFICANT WEATHER.
      TMP - AIR TEMPERATURE.    DP   - DEWPOINT TEMPERATURE.
      RH  - RELATIVE HUMIDITY.  PRES - PRESSURE.
      HX  - HEAT INDEX.         WCI  - WIND CHILL INDEX.
$



USA.gov is the U.S. government's official web portal to all federal, state and local government web resources and services.